Location: Highridge
(54.0333°N, 114.1333°W)
Time: 22:49:23
(UTC+00:00)

TIGRISAT - Visible Passes

Search period start: 10 October 2024 00:00
Search period end: 20 October 2024 00:00
Orbit: 591 x 665 km, 97.7° (Epoch: 10 October)

Date Brightness Start Highest point End Pass type
(mag) Time Alt. Az. Time Alt. Az. Time Alt. Az.
10 Oct ? 01:35:04 10° N 01:38:54 27° WNW 01:42:43 10° WSW visible
10 Oct ? 09:28:10 16° ENE 09:29:02 17° NE 09:31:57 10° NNE visible
10 Oct ? 11:05:31 60° NNW 11:05:31 60° NNW 11:09:18 10° NNW visible
10 Oct ? 12:42:53 13° WNW 12:42:53 13° WNW 12:44:14 10° NW visible
11 Oct ? 01:55:18 10° N 01:58:35 20° NW 02:01:51 10° WSW visible
11 Oct ? 09:48:35 23° ENE 09:48:41 23° ENE 09:52:16 10° N visible
11 Oct ? 11:25:56 42° NW 11:25:56 42° NW 11:29:09 10° NNW visible
12 Oct ? 02:15:43 10° NNW 02:18:12 15° NW 02:20:41 10° W visible
12 Oct ? 10:08:59 31° NE 10:08:59 31° NE 10:12:25 10° N visible
12 Oct ? 11:46:20 29° NW 11:46:20 29° NW 11:48:55 10° NNW visible
13 Oct ? 02:36:43 10° NW 02:37:44 11° NW 02:38:46 10° WNW visible
13 Oct ? 10:29:22 35° NNE 10:29:22 35° NNE 10:32:26 10° N visible
13 Oct ? 12:06:44 20° NW 12:06:44 20° NW 12:08:32 10° NNW visible
14 Oct ? 01:18:00 10° N 01:22:10 35° WNW 01:26:17 10° SW visible
14 Oct ? 09:12:23 13° NE 09:12:23 13° NE 09:14:33 10° NNE visible
14 Oct ? 10:49:44 34° N 10:49:44 34° N 10:52:23 10° N visible
14 Oct ? 12:27:05 13° NW 12:27:05 13° NW 12:27:57 10° NW visible
15 Oct ? 01:38:05 10° N 01:41:49 25° WNW 01:45:30 10° WSW visible
15 Oct ? 09:32:43 17° NE 09:32:43 17° NE 09:34:59 10° NNE visible
15 Oct ? 11:10:05 27° NNW 11:10:05 27° NNW 11:12:13 10° NNW visible
16 Oct ? 01:58:14 10° NNW 02:01:24 19° NW 02:04:30 10° W visible
16 Oct ? 09:53:03 20° NNE 09:53:03 20° NNE 09:55:09 10° N visible
16 Oct ? 11:30:24 21° NNW 11:30:24 21° NNW 11:31:58 10° NNW visible
17 Oct ? 02:18:37 10° NNW 02:20:53 14° NW 02:23:09 10° W visible
17 Oct ? 10:13:21 21° NNE 10:13:21 21° NNE 10:15:11 10° N visible
17 Oct ? 11:50:42 15° NNW 11:50:42 15° NNW 11:51:37 10° NNW visible
18 Oct ? 01:00:43 10° N 01:05:06 46° WNW 01:09:23 10° SW visible
18 Oct ? 02:40:11 10° NW 02:40:20 10° NW 02:40:28 10° NW visible
18 Oct ? 10:33:39 20° N 10:33:39 20° N 10:35:06 10° N visible
18 Oct ? 12:11:00 11° NW 12:11:00 11° NW 12:11:07 10° NNW visible
19 Oct ? 01:20:38 10° N 01:24:42 33° WNW 01:28:43 10° SW visible
19 Oct ? 09:16:34 12° NNE 09:16:34 12° NNE 09:17:13 10° NNE visible
19 Oct ? 10:53:54 17° N 10:53:54 17° N 10:54:56 10° N visible
